When you browse on this site, cookies collect data to enhance your experience and personalize the content and advertising you see.
Visit our Privacy Policy to learn more. By continuing to use the site, you agree to this use of cookies and data.
  • Em Portugal
  • Lista de países
  • Para 7 dias
  • Temperatura da água
  • Mapas de satélite
  • Mapa do tempo
  • Widgets de tempo
  • user-avatar
    Iniciar Sessão

    Previsão horária em Ingener-Pyatina

    Hoje, 26 Junho, Quarta-feira

    Tempo Temperatura Precipitação Vento Pressão Humidade
    00:00 +13°C° 0 mm 2 m/s 755 mmHg 87%
    01:00 +12°C° 0 mm 2 m/s 755 mmHg 89%
    02:00 +12°C° 0 mm 2 m/s 755 mmHg 90%
    03:00 +10°C° 0 mm 3 m/s 755 mmHg 91%
    04:00 +11°C° 0 mm 3 m/s 755 mmHg 88%
    05:00 +12°C° 0 mm 3 m/s 755 mmHg 86%
    06:00 +12°C° 0 mm 3 m/s 755 mmHg 83%
    07:00 +14°C° 0 mm 3 m/s 755 mmHg 76%
    08:00 +15°C° 0 mm 4 m/s 755 mmHg 69%
    09:00 +18°C° 0 mm 4 m/s 755 mmHg 62%
    10:00 +18°C° 0 mm 4 m/s 755 mmHg 59%
    11:00 +19°C° 0 mm 4 m/s 754 mmHg 56%
    12:00 +19°C° 0 mm 4 m/s 754 mmHg 54%
    13:00 +20°C° 0 mm 4 m/s 754 mmHg 53%
    14:00 +20°C° 0 mm 3 m/s 754 mmHg 51%
    15:00 +20°C° 0 mm 3 m/s 753 mmHg 50%
    16:00 +20°C° 0 mm 2 m/s 753 mmHg 53%
    17:00 +20°C° 0 mm 2 m/s 752 mmHg 56%
    18:00 +21°C° 0 mm 1 m/s 752 mmHg 59%
    19:00 +18°C° 0 mm 2 m/s 751 mmHg 64%
    20:00 +17°C° 0 mm 2 m/s 751 mmHg 68%
    21:00 +15°C° 0 mm 2 m/s 750 mmHg 72%
    22:00 +15°C° 1.2 mm 2 m/s 750 mmHg 80%
    23:00 +14°C° 1.2 mm 1 m/s 749 mmHg 88%

    Amanhã, 27 Junho, Quinta-feira

    Tempo Temperatura Precipitação Vento Pressão Humidade
    00:00 +13°C° 1.2 mm 1 m/s 748 mmHg 96%
    01:00 +13°C° 2.9 mm 1 m/s 748 mmHg 97%
    02:00 +13°C° 2.9 mm 1 m/s 747 mmHg 97%
    03:00 +13°C° 2.9 mm 1 m/s 747 mmHg 98%
    04:00 +13°C° 0.3 mm 2 m/s 746 mmHg 97%
    05:00 +13°C° 0.3 mm 2 m/s 746 mmHg 96%
    06:00 +14°C° 0.3 mm 2 m/s 745 mmHg 95%
    07:00 +14°C° 0 mm 3 m/s 745 mmHg 90%
    08:00 +16°C° 0 mm 3 m/s 745 mmHg 85%
    09:00 +17°C° 0 mm 4 m/s 745 mmHg 80%
    10:00 +18°C° 0 mm 3 m/s 745 mmHg 76%
    11:00 +18°C° 0 mm 3 m/s 745 mmHg 72%
    12:00 +19°C° 0 mm 3 m/s 744 mmHg 68%
    13:00 +19°C° 0 mm 3 m/s 744 mmHg 64%
    14:00 +20°C° 0 mm 2 m/s 744 mmHg 61%
    15:00 +20°C° 0 mm 2 m/s 744 mmHg 57%
    16:00 +20°C° 0 mm 2 m/s 743 mmHg 61%
    17:00 +20°C° 0 mm 2 m/s 743 mmHg 66%
    18:00 +19°C° 0 mm 2 m/s 743 mmHg 70%
    19:00 +18°C° 0 mm 3 m/s 742 mmHg 74%
    20:00 +17°C° 0 mm 4 m/s 742 mmHg 78%
    21:00 +15°C° 0 mm 5 m/s 742 mmHg 82%
    22:00 +14°C° 0 mm 6 m/s 741 mmHg 81%
    23:00 +14°C° 0 mm 6 m/s 740 mmHg 79%

    Depois de amanhã, 28 Junho, Sexta-feira

    Tempo Temperatura Precipitação Vento Pressão Humidade
    00:00 +14°C° 0 mm 7 m/s 739 mmHg 78%
    01:00 +12°C° 1.2 mm 8 m/s 738 mmHg 83%
    02:00 +11°C° 1.2 mm 8 m/s 738 mmHg 88%
    03:00 +10°C° 1.2 mm 9 m/s 737 mmHg 94%
    04:00 +10°C° 3.7 mm 9 m/s 736 mmHg 95%
    05:00 +10°C° 3.7 mm 9 m/s 735 mmHg 95%
    06:00 +10°C° 3.7 mm 9 m/s 734 mmHg 96%
    07:00 +11°C° 3 mm 9 m/s 734 mmHg 96%
    08:00 +12°C° 3 mm 9 m/s 734 mmHg 96%
    09:00 +12°C° 3 mm 9 m/s 733 mmHg 96%
    10:00 +13°C° 0.6 mm 9 m/s 733 mmHg 95%
    11:00 +16°C° 0.6 mm 8 m/s 733 mmHg 94%
    12:00 +17°C° 0.6 mm 7 m/s 732 mmHg 93%
    13:00 +17°C° 0.2 mm 7 m/s 732 mmHg 93%
    14:00 +17°C° 0.2 mm 7 m/s 732 mmHg 92%
    15:00 +18°C° 0.2 mm 7 m/s 732 mmHg 92%
    16:00 +19°C° 0.2 mm 6 m/s 732 mmHg 91%
    17:00 +19°C° 0.2 mm 6 m/s 732 mmHg 90%
    18:00 +20°C° 0.2 mm 6 m/s 732 mmHg 89%
    19:00 +19°C° 0.1 mm 5 m/s 732 mmHg 91%
    20:00 +18°C° 0.1 mm 4 m/s 732 mmHg 92%
    21:00 +17°C° 0.1 mm 3 m/s 733 mmHg 94%
    22:00 +16°C° 0 mm 3 m/s 733 mmHg 94%
    23:00 +14°C° 0 mm 3 m/s 733 mmHg 94%

    29 Junho, Sábado

    Tempo Temperatura Precipitação Vento Pressão Humidade
    00:00 +13°C° 0 mm 3 m/s 733 mmHg 94%
    01:00 +12°C° 0 mm 3 m/s 733 mmHg 95%
    02:00 +12°C° 0 mm 4 m/s 733 mmHg 95%
    03:00 +12°C° 0 mm 4 m/s 733 mmHg 96%
    04:00 +12°C° 0 mm 5 m/s 733 mmHg 94%
    05:00 +11°C° 0 mm 6 m/s 733 mmHg 93%
    06:00 +13°C° 0 mm 6 m/s 733 mmHg 91%
    07:00 +12°C° 0 mm 7 m/s 733 mmHg 88%
    08:00 +12°C° 0 mm 7 m/s 734 mmHg 85%
    09:00 +12°C° 0 mm 7 m/s 734 mmHg 83%
    10:00 +14°C° 0 mm 7 m/s 735 mmHg 81%
    11:00 +14°C° 0 mm 7 m/s 735 mmHg 79%
    12:00 +15°C° 0 mm 7 m/s 736 mmHg 77%
    13:00 +15°C° 0 mm 7 m/s 736 mmHg 76%
    14:00 +15°C° 0 mm 7 m/s 737 mmHg 76%
    15:00 +15°C° 0 mm 6 m/s 737 mmHg 75%
    16:00 +16°C° 0.1 mm 6 m/s 737 mmHg 77%
    17:00 +16°C° 0.1 mm 5 m/s 738 mmHg 79%
    18:00 +17°C° 0.1 mm 4 m/s 738 mmHg 81%
    19:00 +15°C° 0 mm 4 m/s 738 mmHg 85%
    20:00 +13°C° 0 mm 3 m/s 739 mmHg 89%
    21:00 +13°C° 0 mm 2 m/s 739 mmHg 93%
    22:00 +12°C° 0 mm 2 m/s 740 mmHg 93%
    23:00 +12°C° 0 mm 2 m/s 740 mmHg 94%

    30 Junho, Domingo

    Tempo Temperatura Precipitação Vento Pressão Humidade
    00:00 +10°C° 0 mm 2 m/s 740 mmHg 95%
    01:00 +9°C° 0 mm 2 m/s 740 mmHg 96%
    02:00 +9°C° 0 mm 2 m/s 741 mmHg 96%
    03:00 +9°C° 0 mm 2 m/s 741 mmHg 97%
    04:00 +9°C° 0 mm 2 m/s 741 mmHg 95%
    05:00 +10°C° 0 mm 2 m/s 741 mmHg 94%
    06:00 +12°C° 0 mm 2 m/s 742 mmHg 93%
    07:00 +12°C° 0 mm 3 m/s 742 mmHg 86%
    08:00 +13°C° 0 mm 3 m/s 742 mmHg 80%
    09:00 +16°C° 0 mm 3 m/s 742 mmHg 73%
    10:00 +17°C° 0 mm 3 m/s 743 mmHg 70%
    11:00 +17°C° 0 mm 4 m/s 743 mmHg 67%
    12:00 +18°C° 0 mm 4 m/s 743 mmHg 65%
    13:00 +18°C° 0.1 mm 4 m/s 743 mmHg 65%
    14:00 +18°C° 0.1 mm 3 m/s 744 mmHg 65%
    15:00 +18°C° 0.1 mm 3 m/s 744 mmHg 65%
    16:00 +18°C° 0 mm 3 m/s 744 mmHg 67%
    17:00 +17°C° 0 mm 3 m/s 744 mmHg 69%
    18:00 +17°C° 0 mm 3 m/s 745 mmHg 71%
    19:00 +15°C° 0 mm 2 m/s 745 mmHg 77%
    20:00 +13°C° 0 mm 1 m/s 745 mmHg 82%
    21:00 +12°C° 0 mm 1 m/s 746 mmHg 87%
    22:00 +11°C° 0 mm 1 m/s 746 mmHg 88%
    23:00 +11°C° 0 mm 1 m/s 746 mmHg 89%

    1 Julho, Segunda-feira

    Tempo Temperatura Precipitação Vento Pressão Humidade
    00:00 +10°C° 0 mm 1 m/s 746 mmHg 90%
    01:00 +10°C° 0 mm 1 m/s 747 mmHg 90%
    02:00 +10°C° 0 mm 1 m/s 747 mmHg 91%
    03:00 +10°C° 0 mm 1 m/s 747 mmHg 92%
    04:00 +11°C° 0 mm 1 m/s 747 mmHg 90%
    05:00 +12°C° 0 mm 1 m/s 747 mmHg 88%
    06:00 +13°C° 0 mm 1 m/s 747 mmHg 86%
    07:00 +14°C° 0 mm 2 m/s 747 mmHg 80%
    08:00 +16°C° 0 mm 2 m/s 747 mmHg 75%
    09:00 +17°C° 0 mm 2 m/s 747 mmHg 69%
    10:00 +18°C° 0 mm 2 m/s 747 mmHg 67%
    11:00 +19°C° 0 mm 2 m/s 747 mmHg 65%
    12:00 +20°C° 0 mm 3 m/s 747 mmHg 62%
    13:00 +20°C° 0 mm 3 m/s 746 mmHg 64%
    14:00 +20°C° 0 mm 3 m/s 746 mmHg 66%
    15:00 +20°C° 0 mm 3 m/s 746 mmHg 67%
    16:00 +20°C° 0.1 mm 3 m/s 746 mmHg 72%
    17:00 +19°C° 0.1 mm 3 m/s 745 mmHg 77%
    18:00 +18°C° 0.1 mm 3 m/s 745 mmHg 81%
    19:00 +17°C° 0.7 mm 3 m/s 745 mmHg 86%
    20:00 +16°C° 0.7 mm 3 m/s 745 mmHg 90%
    21:00 +16°C° 0.7 mm 3 m/s 745 mmHg 95%
    22:00 +14°C° 0.7 mm 3 m/s 744 mmHg 96%
    23:00 +14°C° 0.7 mm 3 m/s 744 mmHg 96%
    Mostrar mais